User: anonymous
Location: Unspecified
(0.0000°N, 0.0000°E)
Time: 16:00:14
(UTC+02:00)
Language:

Delta 2 Rocket - Orbit

View from above orbital plane
View from above orbital plane
View from above satellite
View from above satellite

Ground track
Ground track

The orbit data is extracted from the following two-line orbital elements,

1 20453U 90008B   14244.97978750  .00004212  00000-0  27242-3 0   594
2 20453 035.6267 070.4668 0323055 010.6874 350.0503 14.73807433297116
Epoch (UTC): 01 September 2014 23:30:53
Eccentricity: 0.0323055
inclination: 35.6267°
perigee height: 422 km
apogee height: 876 km
right ascension of ascending node: 70.4668°
argument of perigee: 10.6874°
revolutions per day: 14.73807433
mean anomaly at epoch: 350.0503°
orbit number at epoch: 29711

The dashed part of the orbit path shows where the satellite is in the earth's shadow,  

DLR